TimeEST,TemperatureF,Dew PointF,Humidity,Sea Level PressureIn,VisibilityMPH,Wind Direction,Wind SpeedMPH,Gust SpeedMPH,PrecipitationIn,Events,Conditions,WindDirDegrees,DateUTC
12:54 AM,23.0,19.9,88,30.37,4.0,South,3.5,-,N/A,,Clear,190,2013-01-09 05:54:00
1:54 AM,26.1,21.9,84,30.36,5.0,SSW,6.9,-,N/A,,Clear,210,2013-01-09 06:54:00
2:54 AM,24.1,21.9,91,30.37,5.0,SW,4.6,-,N/A,,Clear,220,2013-01-09 07:54:00
3:54 AM,21.0,19.0,92,30.35,3.0,Calm,Calm,-,N/A,,Clear,0,2013-01-09 08:54:00
4:34 AM,19.4,17.6,93,30.34,1.8,Calm,Calm,-,N/A,,Clear,0,2013-01-09 09:34:00
4:46 AM,19.4,15.8,86,30.34,3.0,Calm,Calm,-,N/A,,Clear,0,2013-01-09 09:46:00
4:54 AM,19.0,16.0,88,30.35,4.0,Calm,Calm,-,N/A,,Clear,0,2013-01-09 09:54:00
5:54 AM,19.0,15.1,85,30.36,4.0,Calm,Calm,-,N/A,,Clear,0,2013-01-09 10:54:00
6:54 AM,17.1,15.1,92,30.36,3.0,Calm,Calm,-,N/A,,Clear,0,2013-01-09 11:54:00
7:29 AM,17.6,15.8,93,30.36,2.5,Calm,Calm,-,N/A,,Clear,0,2013-01-09 12:29:00
7:38 AM,17.6,15.8,93,30.36,4.0,Calm,Calm,-,N/A,,Clear,0,2013-01-09 12:38:00
7:54 AM,19.0,16.0,88,30.37,3.0,Calm,Calm,-,N/A,,Clear,0,2013-01-09 12:54:00
8:54 AM,21.9,19.9,92,30.37,3.0,Calm,Calm,-,N/A,,Clear,0,2013-01-09 13:54:00
9:54 AM,26.1,23.0,88,30.34,3.0,Calm,Calm,-,N/A,,Clear,0,2013-01-09 14:54:00
10:54 AM,28.9,25.0,85,30.27,3.0,Calm,Calm,-,N/A,,Clear,0,2013-01-09 15:54:00
11:54 AM,34.0,27.0,75,30.25,5.0,South,5.8,-,N/A,,Haze,180,2013-01-09 16:54:00
12:54 PM,36.0,27.0,70,30.25,5.0,SW,3.5,-,N/A,,Haze,230,2013-01-09 17:54:00
1:54 PM,37.9,28.9,70,30.17,6.0,South,9.2,-,N/A,,Haze,190,2013-01-09 18:54:00
2:54 PM,37.9,30.0,73,30.12,6.0,SSW,3.5,-,0.00,,Haze,210,2013-01-09 19:54:00
3:54 PM,39.9,32.0,73,30.10,6.0,SSW,12.7,-,N/A,,Haze,210,2013-01-09 20:54:00
4:54 PM,39.9,32.0,73,30.10,7.0,SSW,9.2,-,N/A,,Mostly Cloudy,200,2013-01-09 21:54:00
5:54 PM,41.0,32.0,70,30.12,8.0,WSW,8.1,-,N/A,,Clear,240,2013-01-09 22:54:00
6:54 PM,39.0,32.0,76,30.15,7.0,SW,9.2,-,N/A,,Clear,230,2013-01-09 23:54:00
8:54 PM,39.0,32.0,76,30.13,8.0,SW,12.7,-,N/A,,Clear,230,2013-01-10 01:54:00
9:54 PM,37.0,30.9,79,30.15,7.0,WSW,5.8,-,N/A,,Clear,240,2013-01-10 02:54:00
10:54 PM,36.0,30.0,79,30.17,8.0,SW,6.9,-,N/A,,Clear,220,2013-01-10 03:54:00
11:54 PM,42.1,28.9,60,30.19,10.0,WNW,12.7,17.3,N/A,,Clear,290,2013-01-10 04:54:00